Weather History for Chillicothe, MO

Change the Weather History Date:

Thursday, January 24, 2013

  Actual Average (KIRK) Record (KIRK)
Temperature  
Mean Temperature 15 °F 26 °F  
Max Temperature 23 °F 36 °F 70 °F (1950)
Min Temperature 7 °F 17 °F -10 °F (1963)
Degree Days  
Heating Degree Days 50 39  
Month to date heating degree days 936  
Since 1 July heating degree days 3279  
Cooling Degree Days 0 0  
Month to date cooling degree days 0  
Year to date cooling degree days 0  
Moisture  
Dew Point 1 °F    
Average Humidity 53    
Maximum Humidity 67    
Minimum Humidity 44    
Precipitation  
Precipitation 0.00 in 0.05 in 1.04 in (1938)
Month to date precipitation 0.85  
Year to date precipitation 0.85  
Sea Level Pressure  
Sea Level Pressure 30.50 in    
Wind  
Wind Speed 10 mph (East)    
Max Wind Speed 15 mph    
Max Gust Speed 22 mph    
T = Trace of Precipitation, MM = Missing Value Source: NWS Daily Summary

Daily Weather History Graph

Daily Weather History Graph

Search for Another Location

Airport:

Trip Planner

Search our weather history database for the weather conditions in past years. The results will help you decide how hot, cold, wet, or windy it might be!

Date:

Astronomy

Jan. 24, 2013 Rise Set
Actual Time 7:28 AM CST 5:24 PM CST
Civil Twilight 6:59 AM CST 5:53 PM CST
Nautical Twilight 6:26 AM CST 6:26 PM CST
Astronomical Twilight 5:54 AM CST 6:58 PM CST
Moon 3:27 PM CST (1/24) 5:26 AM CST (1/24)
Length of Visible Light 10h 54m
Length of Day
9h 55m
Waxing Gibbous, 94% of the Moon is Illuminated
Jan 24
Waxing Gibbous
Jan 26
Full
Feb 3
Last Quarter
Feb 10
New
Feb 17
First Quarter

Hourly Weather History & Observations

Time (CST) Temp. Windchill Dew Point Humidity Pressure Visibility Wind Dir Wind Speed Gust Speed Precip Events Conditions
12:52 AM 16.0 °F 1.1 °F 1.0 °F 52% 30.54 in - NNE 15.0 mph 21.9 mph N/A   Unknown
1:52 AM 12.0 °F -1.3 °F -0.0 °F 59% 30.57 in - North 10.4 mph - N/A   Unknown
2:52 AM 9.0 °F -4.2 °F -2.0 °F 61% 30.61 in - North 9.2 mph 17.3 mph N/A   Unknown
3:52 AM 8.1 °F -5.3 °F -2.0 °F 64% 30.61 in - NNE 9.2 mph - N/A   Unknown
4:52 AM 7.0 °F -6.6 °F -2.0 °F 67% 30.62 in - North 9.2 mph - N/A   Unknown
5:52 AM 7.0 °F -8.3 °F -2.0 °F 67% 30.61 in - NE 11.5 mph - N/A   Unknown
6:52 AM 7.0 °F -5.7 °F -2.9 °F 64% 30.62 in - NE 8.1 mph - N/A   Unknown
7:52 AM 7.0 °F -4.5 °F -2.9 °F 64% 30.62 in - NE 6.9 mph - N/A   Unknown
8:52 AM 9.0 °F -2.2 °F -2.0 °F 61% 30.66 in - ENE 6.9 mph - N/A   Unknown
9:52 AM 12.0 °F -1.3 °F -0.9 °F 56% 30.65 in - East 10.4 mph 18.4 mph N/A   Unknown
10:52 AM 15.1 °F 2.5 °F 1.0 °F 54% 30.64 in - East 10.4 mph 17.3 mph N/A   Unknown
11:52 AM 16.0 °F 4.4 °F 1.0 °F 52% 30.59 in - East 9.2 mph - N/A   Unknown
12:52 PM 19.0 °F 6.8 °F 1.9 °F 47% 30.53 in - SE 11.5 mph - N/A   Unknown
1:52 PM 19.0 °F 8.2 °F 1.9 °F 47% 30.50 in - ESE 9.2 mph - N/A   Unknown
2:52 PM 19.9 °F 7.3 °F 1.9 °F 46% 30.46 in - ESE 12.7 mph - N/A   Unknown
3:52 PM 21.0 °F 8.6 °F 3.0 °F 46% 30.44 in - East 12.7 mph - N/A   Unknown
4:52 PM 21.0 °F 9.9 °F 3.0 °F 46% 30.41 in - ESE 10.4 mph - N/A   Unknown
5:52 PM 21.0 °F 9.3 °F 1.9 °F 44% 30.39 in - ESE 11.5 mph - N/A   Unknown
6:52 PM 21.0 °F 11.4 °F 3.0 °F 46% 30.36 in - East 8.1 mph - N/A   Unknown
7:52 PM 21.9 °F 11.7 °F 3.9 °F 46% 30.34 in - ESE 9.2 mph 19.6 mph N/A   Unknown
8:52 PM 21.9 °F 12.5 °F 3.9 °F 46% 30.35 in - ESE 8.1 mph - N/A   Unknown
9:52 PM 23.0 °F 15.8 °F 5.0 °F 46% 30.32 in - SE 5.8 mph - N/A   Unknown
10:52 PM 23.0 °F 15.8 °F 5.0 °F 46% 30.31 in - ESE 5.8 mph - N/A   Unknown
11:52 PM 23.0 °F 17.0 °F 6.1 °F 48% 30.30 in - East 4.6 mph - N/A   Unknown